sat.trackr.live / text

‹ back to catalog

STARLINK-31455

NORAD 59309 · 2024-056P

PAYLOAD ACTIVE UNKNOWN

§ Identity

Operator
Country
US
Launch date
2024-03-24
Launch site
AFETR
Launch vehicle
Mass (kg)
RCS (m²)

Purposes: comms

External: N2YO · Heavens-Above · Gunter

§ Orbital elements

Epoch: 2026-05-25T01:51:00.193248Z

Period
94.27 min
Inclination
43.0027°
Eccentricity
0.0001123
Mean motion
15.27575089 rev/d
Perigee alt
482.3 km
Apogee alt
483.8 km
Semi-major
6,861.2 km
B*
5.0604e-6
RAAN
156.1287°
Arg perigee
274.9784°
Mean anomaly
85.0940°
Rev number
12,287

§ Raw data

STARLINK-314551 59309U 24056P   26145.07708557 -.00000123  00000+0  50604-5 0  99962 59309  43.0027 156.1287 0001123 274.9784  85.0940 15.27575089122877

JSON: /api/v1/satellites/59309 · /tle

For live sub-satellite position, see the globe view (requires WebGL).

§ Visibility from observer

Set your observer location to see the next 7 days of passes ≥ 10°. The values pass through the URL so the page stays shareable.

No JS? Fill the form by hand. The geolocation button needs JavaScript.